Location: Newark
(52.5694°N, 1.3190°W)
Time: 10:51:02
(UTC+00:00)

N. Korean satellite - Pass Details

Date: 26 January 2020
Orbit: 456 x 505 km, 97.2° (Epoch: 19 February)

Event Time Altitude Azimuth Distance (km) Brightness Sun altitude
Rises 06:48:49 0° 6° (N) 2,534 10.1 -10.3°
Reaches altitude 10° 06:51:00 10° 356° (N) 1,660 9.1 -10.0°
Maximum altitude 06:54:12 32° 292° (WNW) 857 7.3 -9.5°
Drops below altitude 10° 06:57:25 10° 229° (SW) 1,673 9.0 -9.0°
Sets 06:59:38 0° 219° (SW) 2,559 10.0 -8.7°
